Location: Milo
(50.5667°N, 112.8833°W)
Time: 11:28:53
(UTC+00:00)

N. Korean satellite - Pass Details

Date: 06 December 2021
Orbit: 447 x 490 km, 97.3° (Epoch: 27 January)

Event Time Altitude Azimuth Distance (km) Brightness Sun altitude
Rises 00:21:45 0° 186° (S) 2,521 10.7 -8.2°
Reaches altitude 10° 00:23:57 10° 196° (SSW) 1,640 9.9 -8.5°
Maximum altitude 00:27:11 34° 263° (W) 801 8.5 -8.9°
Drops below altitude 10° 00:30:23 10° 330° (NNW) 1,628 9.3 -9.4°
Sets 00:32:34 0° 340° (NNW) 2,501 10.1 -9.7°
